Location: Most
(50.5133°N, 13.6207°E)
Time: 04:42:16
(UTC+02:00)

UNHA 3 R/B - Pass Details

Date: 25 September 2020
Orbit: 479 x 556 km, 97.4° (Epoch: 20 October)

Event Time Altitude Azimuth Distance (km) Brightness Sun altitude
Rises 04:37:48 0° 23° (NNE) 2,630 9.6 -22.1°
Reaches altitude 10° 04:40:08 10° 36° (NE) 1,752 8.8 -21.8°
Maximum altitude 04:43:21 26° 95° (E) 1,052 7.3 -21.3°
Drops below altitude 10° 04:46:38 10° 153° (SSE) 1,778 7.9 -20.9°
Enters shadow 04:48:30 - 164° (SSE) 2,479 8.6 -20.6°
